Flag for Marshall Islands Weather past 2 weeks in Majuro, Marshall Islands

Now
84 °F

Overcast.


Feels Like: 94 °F
Forecast: 81 / 83 °F
Wind: 18 mph from Southwest

Location: Majuro Atoll

Current Time: Sep 5, 2015 at 1:08:02 AM

Latest Report: Sep 4, 2015 at 11:58 PM


Visibility: 15 mi

Pressure: 29.82 "Hg

Humidity: 83%

Dew point: 78 °F

Location of MajuroLocation

Historic Weather in Majuro — Graph

°F

Majuro temperature yesterday

Maximum temperature yesterday: 84 °F (at 4:56 PM)
Minimum temperature yesterday: 78 °F (at 6:53 AM)
Average temperature yesterday: 82 °F

Past Weeks' High & Low Weather Summary

 TemperatureHumidityPressure
High88 °F (Sep 3, 1:52 PM)94% (Aug 21, 6:54 PM)29.92 "Hg (Aug 21, 6:54 PM)
Low77 °F (Aug 23, 2:57 AM)71% (Sep 3, 1:52 PM)29.72 "Hg (Aug 27, 2:55 PM)
Average83 °F84%29.80 "Hg
* Reported Aug 20 11:53 PM — Sep 4 11:58 PM, Majuro, Weather by CustomWeather, © 2015

Note: Actual official high and low records may vary slightly from our data, if they occured in-between our weather recording intervals... More about our weather records

Advertising

Majuro weather history for previous 24 hours

 ConditionsComfort  
Time TempWeatherWind HumidityBarometerVisibility
11:58 PM
Fri, Sep 4
84 °FOvercast.18 mph83%29.82 "Hg15 mi
10:51 PM84 °FOvercast.18 mph83%29.83 "Hg15 mi
9:54 PM84 °FOvercast.15 mph82%29.84 "Hg15 mi
8:53 PM84 °FOvercast.13 mph84%29.83 "Hg15 mi
7:53 PM82 °FOvercast.17 mph84%29.81 "Hg15 mi
6:52 PM82 °FCloudy.17 mph88%29.80 "Hg15 mi
5:51 PM83 °FCloudy.13 mph86%29.78 "Hg15 mi
4:56 PM84 °FCloudy.15 mph83%29.77 "Hg15 mi
3:56 PM84 °FCloudy.14 mph84%29.77 "Hg15 mi
2:52 PM83 °FCloudy.12 mph84%29.77 "Hg15 mi
1:51 PM83 °FCloudy.14 mph84%29.80 "Hg15 mi
12:50 PM82 °FCloudy.15 mph88%29.83 "Hg15 mi
11:51 AM81 °FLight rain. Cloudy.9 mph91%29.85 "Hg14 mi
10:53 AM80 °FRain. Cloudy.9 mph92%29.88 "Hg14 mi
9:51 AM79 °FSprinkles. Cloudy.7 mph91%29.90 "Hg12 mi
8:50 AM79 °FSprinkles. Cloudy.No wind93%29.88 "Hg10 mi
7:52 AM79 °FSprinkles. Cloudy.15 mph90%29.85 "Hg10 mi
6:53 AM78 °FRain showers. Overcast.8 mph92%29.85 "Hg8 mi
5:55 AM81 °FSprinkles. Overcast.6 mph89%29.83 "Hg12 mi
4:54 AM82 °FMostly cloudy.9 mph86%29.81 "Hg15 mi
3:53 AM83 °FMostly cloudy.8 mph84%29.81 "Hg15 mi
2:52 AM83 °FMostly cloudy.9 mph84%29.83 "Hg15 mi
1:53 AM82 °FOvercast.7 mph89%29.85 "Hg15 mi
Weather by CustomWeather, © 2015

See weather overviewHow to use our weather pages